Staunton, VA

3:24 AM EDT on April 28, 2017 (GMT -0400)
Shenandoah Valley Regional

Weather History for KSHD - September, 2013

Change the Weather History Date:

Thursday, September 12, 2013

  Actual Average Record
Temperature  
Mean Temperature 76 °F -  
Max Temperature 89 °F 79 °F 95 °F (1998)
Min Temperature 63 °F 55 °F 44 °F (2012)
Cooling Degree Days 11    
Growing Degree Days 26 (Base 50)    
Moisture  
Dew Point 63 °F    
Average Humidity 73    
Maximum Humidity 95    
Minimum Humidity 33    
Precipitation  
Precipitation 0.00 in - - ()
Sea Level Pressure  
Sea Level Pressure 29.96 in    
Wind  
Wind Speed 2 mph (WSW)    
Max Wind Speed 20 mph    
Max Gust Speed 29 mph    
Visibility 8 miles    
Events Fog , Rain , Thunderstorm    
Averages and records for this station are not official NWS values.
T = Trace of Precipitation, MM = Missing Value Source: NWS Daily Summary

Daily Weather History Graph

Daily Weather History Graph

Search for Another Location

Airport or City:

Trip Planner

Search our weather history database for the weather conditions in past years. The results will help you decide how hot, cold, wet, or windy it might be!

Date:

Astronomy

Sep. 12, 2013 Rise Set
Actual Time 6:54 AM EDT 7:28 PM EDT
Civil Twilight 6:28 AM EDT 7:54 PM EDT
Nautical Twilight 5:56 AM EDT 8:25 PM EDT
Astronomical Twilight 5:24 AM EDT 8:57 PM EDT
Moon 2:15 PM EDT (9/12) No Moon Set
Length of Visible Light 13h 26m
Length of Day
12h 33m
Waxing Crescent, 50% of the Moon is Illuminated
Sep 12
Waxing Crescent
Sep 12
First Quarter
Sep 19
Full
Sep 26
Last Quarter
Oct 4
New

Hourly Weather History & Observations

Time (EDT) Temp. Heat Index Dew Point Humidity Pressure Visibility Wind Dir Wind Speed Gust Speed Precip Events Conditions
12:15 AM 70.2 °F - 66.7 °F 89% 30.10 in 7.0 mi Calm Calm - N/A   Clear
12:35 AM 69.1 °F - 66.0 °F 90% 30.09 in 5.0 mi Calm Calm - N/A   Clear
12:55 AM 68.7 °F - 65.3 °F 89% 30.08 in 7.0 mi SSE 3.5 mph - N/A   Clear
1:15 AM 68.9 °F - 65.5 °F 89% 30.07 in 7.0 mi Calm Calm - N/A   Clear
1:35 AM 68.9 °F - 65.7 °F 89% 30.07 in 7.0 mi Calm Calm - N/A   Clear
1:55 AM 68.2 °F - 65.7 °F 92% 30.06 in 5.0 mi Calm Calm - N/A   Clear
2:15 AM 66.4 °F - 64.0 °F 92% 30.06 in 4.0 mi Calm Calm - N/A   Clear
2:35 AM 67.6 °F - 65.3 °F 92% 30.06 in 4.0 mi Calm Calm - N/A   Clear
2:55 AM 66.9 °F - 64.4 °F 92% 30.05 in 5.0 mi Calm Calm - N/A   Clear
3:15 AM 65.1 °F - 63.0 °F 93% 30.05 in 4.0 mi Calm Calm - N/A   Clear
3:35 AM 65.3 °F - 63.3 °F 93% 30.05 in 3.0 mi Calm Calm - N/A   Clear
3:55 AM 64.4 °F - 62.4 °F 93% 30.05 in 3.0 mi Calm Calm - N/A   Clear
4:15 AM 65.1 °F - 63.0 °F 93% 30.05 in 7.0 mi Calm Calm - N/A   Clear
4:35 AM 64.8 °F - 63.0 °F 94% 30.04 in 1.8 mi Calm Calm - N/A   Mist
4:55 AM 65.3 °F - 63.7 °F 94% 30.04 in 0.8 mi Calm Calm - N/A   Mostly Cloudy
5:15 AM 63.0 °F - 61.5 °F 95% 30.04 in 4.0 mi Calm Calm - N/A   Clear
5:35 AM 64.2 °F - 62.6 °F 94% 30.04 in 2.5 mi Calm Calm - N/A   Clear
5:55 AM 63.5 °F - 61.7 °F 94% 30.04 in 1.5 mi Calm Calm - N/A   Mist
6:15 AM 64.0 °F - 62.4 °F 94% 30.05 in 1.5 mi Calm Calm - N/A   Scattered Clouds
6:35 AM 63.9 °F - 62.2 °F 94% 30.05 in 5.0 mi Calm Calm - N/A   Scattered Clouds
6:55 AM 63.5 °F - 61.5 °F 93% 30.05 in 1.8 mi Calm Calm - N/A   Mostly Cloudy
7:15 AM 63.7 °F - 61.9 °F 94% 30.05 in 0.2 mi Calm Calm - N/A Fog Fog
7:35 AM 63.5 °F - 61.7 °F 94% 30.05 in 0.8 mi Calm Calm - N/A   Overcast
7:55 AM 66.0 °F - 64.4 °F 94% 30.05 in 2.0 mi Calm Calm - N/A   Scattered Clouds
8:15 AM 67.1 °F - 65.5 °F 95% 30.04 in 2.0 mi Calm Calm - N/A   Clear
8:35 AM 68.4 °F - 66.2 °F 93% 30.04 in 3.0 mi Calm Calm - N/A   Clear
8:55 AM 70.5 °F - 67.1 °F 89% 30.04 in 5.0 mi Calm Calm - N/A   Scattered Clouds
9:15 AM 72.7 °F - 67.1 °F 83% 30.04 in 7.0 mi Calm Calm - N/A   Mostly Cloudy
9:35 AM 73.4 °F - 67.1 °F 81% 30.03 in 7.0 mi South 3.5 mph - N/A   Overcast
9:55 AM 74.3 °F - 67.3 °F 79% 30.03 in 7.0 mi Calm Calm - N/A   Overcast
10:15 AM 75.4 °F - 67.6 °F 77% 30.02 in 10.0 mi South 4.6 mph - N/A   Overcast
10:35 AM 76.5 °F - 68.0 °F 75% 30.02 in 10.0 mi SSW 4.6 mph - N/A   Overcast
10:55 AM 78.1 °F - 68.4 °F 72% 30.00 in 10.0 mi South 3.5 mph - N/A   Mostly Cloudy
11:15 AM 80.8 °F 83.5 °F 68.2 °F 65% 29.99 in 10.0 mi SW 4.6 mph - N/A   Scattered Clouds
11:35 AM 81.7 °F 84.2 °F 67.3 °F 61% 29.99 in 10.0 mi SSW 3.5 mph - N/A   Clear
11:55 AM 83.3 °F 85.7 °F 66.7 °F 57% 29.98 in 10.0 mi SW 8.1 mph - N/A   Clear
12:15 PM 84.6 °F 86.8 °F 66.4 °F 54% 29.98 in 10.0 mi SW 6.9 mph - N/A   Scattered Clouds
12:35 PM 84.9 °F 86.6 °F 65.1 °F 51% 29.97 in 10.0 mi Calm Calm - N/A   Scattered Clouds
12:55 PM 85.8 °F 87.6 °F 65.3 °F 50% 29.96 in 10.0 mi South 6.9 mph - N/A   Clear
1:15 PM 85.8 °F 87.4 °F 64.6 °F 49% 29.95 in 10.0 mi WNW 3.5 mph - N/A   Scattered Clouds
1:35 PM 87.4 °F 88.2 °F 63.3 °F 44% 29.94 in 10.0 mi WNW 8.1 mph - N/A   Scattered Clouds
1:55 PM 86.9 °F 87.8 °F 63.5 °F 45% 29.93 in 10.0 mi NW 4.6 mph - N/A   Mostly Cloudy
2:15 PM 88.2 °F 88.7 °F 62.4 °F 42% 29.92 in 10.0 mi WSW 4.6 mph - N/A   Mostly Cloudy
2:35 PM 89.1 °F 89.3 °F 61.5 °F 40% 29.91 in 10.0 mi SW 5.8 mph - N/A   Scattered Clouds
2:55 PM 88.9 °F 89.4 °F 62.1 °F 41% 29.89 in 10.0 mi SW 9.2 mph - N/A   Clear
3:15 PM 87.4 °F 87.4 °F 61.0 °F 41% 29.88 in 10.0 mi WSW 5.8 mph 9.2 mph N/A   Scattered Clouds
3:35 PM 86.4 °F 86.5 °F 61.3 °F 43% 29.87 in 10.0 mi West 5.8 mph - N/A   Mostly Cloudy
3:55 PM 85.6 °F 86.3 °F 62.6 °F 46% 29.86 in 10.0 mi West 5.8 mph - N/A   Mostly Cloudy
4:15 PM 88.3 °F 88.1 °F 60.3 °F 39% 29.85 in 10.0 mi West 10.4 mph 17.3 mph N/A   Scattered Clouds
4:35 PM 87.1 °F 85.3 °F 54.9 °F 33% 29.84 in 10.0 mi WNW 8.1 mph - N/A   Clear
4:55 PM 86.9 °F 85.5 °F 56.1 °F 35% 29.84 in 10.0 mi WNW 8.1 mph - N/A   Scattered Clouds
5:15 PM 84.7 °F 83.9 °F 57.6 °F 39% 29.85 in 10.0 mi NW 5.8 mph - N/A   Mostly Cloudy
5:35 PM 83.5 °F 83.1 °F 58.3 °F 42% 29.85 in 10.0 mi West 5.8 mph - N/A   Mostly Cloudy
5:55 PM 83.3 °F 82.9 °F 58.3 °F 42% 29.84 in 10.0 mi WSW 6.9 mph - N/A   Clear
6:15 PM 81.5 °F 81.8 °F 59.2 °F 47% 29.84 in 10.0 mi West 6.9 mph - N/A   Clear
6:35 PM 80.4 °F 81.1 °F 59.9 °F 49% 29.84 in 10.0 mi NW 4.6 mph - N/A   Clear
6:55 PM 76.8 °F - 59.0 °F 54% 29.87 in 10.0 mi WNW 19.6 mph 28.8 mph N/A Rain , Thunderstorm Light Thunderstorms and Rain
7:15 PM 69.8 °F - 61.5 °F 75% 29.85 in 10.0 mi WSW 4.6 mph - N/A   Scattered Clouds
7:35 PM 69.8 °F - 61.5 °F 75% 29.86 in 10.0 mi West 3.5 mph - N/A   Clear
7:55 PM 69.8 °F - 61.5 °F 75% 29.86 in 10.0 mi Calm Calm - N/A   Clear
8:15 PM 68.0 °F - 62.1 °F 81% 29.87 in 10.0 mi Calm Calm - N/A   Scattered Clouds
8:35 PM 68.2 °F - 62.6 °F 82% 29.88 in 10.0 mi Calm Calm - N/A   Scattered Clouds
8:55 PM 68.4 °F - 63.0 °F 83% 29.88 in 10.0 mi Calm Calm - N/A Rain Light Rain
9:15 PM 68.9 °F - 63.3 °F 82% 29.87 in 10.0 mi South 3.5 mph - N/A Rain Light Rain
9:35 PM 69.6 °F - 63.0 °F 79% 29.88 in 10.0 mi Calm Calm - N/A   Overcast
9:55 PM 68.5 °F - 63.5 °F 84% 29.87 in 10.0 mi Calm Calm - N/A   Scattered Clouds
10:15 PM 68.9 °F - 63.1 °F 82% 29.87 in 10.0 mi Calm Calm - N/A   Clear
10:35 PM 68.2 °F - 62.8 °F 83% 29.86 in 10.0 mi Calm Calm - N/A   Clear
10:55 PM 67.8 °F - 62.6 °F 83% 29.87 in 10.0 mi Calm Calm - N/A   Mostly Cloudy
11:15 PM 67.5 °F - 62.1 °F 83% 29.86 in 10.0 mi WNW 5.8 mph - N/A   Mostly Cloudy
11:35 PM 69.1 °F - 61.2 °F 76% 29.86 in 10.0 mi Calm Calm - N/A   Scattered Clouds
11:55 PM 66.6 °F - 61.7 °F 84% 29.85 in 10.0 mi Calm Calm - N/A   Clear